Weather History for Alexandria Esle, LA

Change the Weather History Date:

Monday, December 9, 2013

  Actual Average Record
Temperature  
Mean Temperature 40 °F -  
Max Temperature 42 °F 62 °F 82 °F (2012)
Min Temperature 37 °F 40 °F 18 °F (2006)
Degree Days  
Heating Degree Days 26    
Moisture  
Dew Point 37 °F    
Average Humidity 90    
Maximum Humidity 93    
Minimum Humidity 87    
Precipitation  
Precipitation 0.26 in - - ()
Sea Level Pressure  
Sea Level Pressure 30.16 in    
Wind  
Wind Speed 4 mph (NNE)    
Max Wind Speed 8 mph    
Max Gust Speed -    
Visibility 4 miles    
Events Rain    
Averages and records for this station are not official NWS values.
T = Trace of Precipitation, MM = Missing Value Source: NWS Daily Summary

Daily Weather History Graph

Daily Weather History Graph

Search for Another Location

Airport:

Trip Planner

Search our weather history database for the weather conditions in past years. The results will help you decide how hot, cold, wet, or windy it might be!

Date:

Astronomy

Dec. 09, 2013 Rise Set
Actual Time 6:56 AM CST 5:06 PM CST
Civil Twilight 6:30 AM CST 5:33 PM CST
Nautical Twilight 5:59 AM CST 6:03 PM CST
Astronomical Twilight 5:30 AM CST 6:32 PM CST
Moon 12:12 PM CST (12/9) No Moon Set
Length of Visible Light 11h 02m
Length of Day
10h 09m
Waxing Crescent, 51% of the Moon is Illuminated
Dec 9
Waxing Crescent
Dec 17
Full
Dec 25
Last Quarter
Jan 1
New
Jan 7
First Quarter

Hourly Weather History & Observations

Time (CST) Temp. Windchill Dew Point Humidity Pressure Visibility Wind Dir Wind Speed Gust Speed Precip Events Conditions
12:19 AM 42.8 °F - 39.2 °F 87% 30.13 in 5.0 mi Calm Calm - N/A   Overcast
12:53 AM 42.1 °F - 39.0 °F 89% 30.14 in 5.0 mi Calm Calm - N/A   Overcast
1:53 AM 42.1 °F - 39.0 °F 89% 30.13 in 5.0 mi Calm Calm - N/A   Overcast
2:53 AM 42.1 °F 40.2 °F 39.0 °F 89% 30.14 in 5.0 mi Variable 3.5 mph - N/A   Overcast
3:06 AM 42.8 °F 40.1 °F 39.2 °F 87% 30.13 in 5.0 mi North 4.6 mph - N/A   Overcast
3:36 AM 42.8 °F 41.1 °F 39.2 °F 87% 30.13 in 2.5 mi North 3.5 mph - N/A   Overcast
3:53 AM 42.1 °F 40.2 °F 39.9 °F 92% 30.14 in 2.5 mi Variable 3.5 mph - N/A   Overcast
4:17 AM 42.8 °F 39.3 °F 39.2 °F 87% 30.13 in 3.0 mi Variable 5.8 mph - N/A   Overcast
4:27 AM 41.0 °F 36.4 °F 39.2 °F 93% 30.13 in 2.0 mi North 6.9 mph - N/A   Overcast
4:35 AM 41.0 °F 37.1 °F 39.2 °F 93% 30.13 in 1.5 mi Variable 5.8 mph - N/A   Overcast
4:53 AM 41.0 °F 38.0 °F 39.0 °F 93% 30.14 in 2.0 mi Variable 4.6 mph - N/A   Overcast
5:53 AM 41.0 °F - 37.9 °F 89% 30.16 in 2.5 mi Calm Calm - N/A   Overcast
6:08 AM 41.0 °F - 39.2 °F 93% 30.16 in 3.0 mi Calm Calm - N/A   Overcast
6:18 AM 41.0 °F - 39.2 °F 93% 30.16 in 2.5 mi Calm Calm - N/A   Overcast
6:45 AM 39.2 °F 35.0 °F 37.4 °F 93% 30.16 in 3.0 mi NE 5.8 mph - N/A   Overcast
6:53 AM 39.9 °F 36.7 °F 37.9 °F 93% 30.16 in 3.0 mi NE 4.6 mph - N/A   Overcast
7:00 AM 39.2 °F 35.0 °F 37.4 °F 93% 30.16 in 2.5 mi NE 5.8 mph - N/A   Overcast
7:13 AM 39.2 °F 35.0 °F 37.4 °F 93% 30.16 in 2.0 mi NE 5.8 mph - N/A   Overcast
7:53 AM 39.9 °F 35.1 °F 37.9 °F 93% 30.17 in 2.5 mi Variable 6.9 mph - N/A   Overcast
8:06 AM 39.2 °F 35.9 °F 37.4 °F 93% 30.17 in 3.0 mi NE 4.6 mph - N/A   Overcast
8:17 AM 39.2 °F 34.2 °F 37.4 °F 93% 30.17 in 2.0 mi NE 6.9 mph - N/A   Overcast
8:53 AM 41.0 °F 38.0 °F 37.9 °F 89% 30.20 in 2.0 mi Variable 4.6 mph - N/A   Overcast
9:11 AM 41.0 °F 38.0 °F 37.4 °F 87% 30.21 in 3.0 mi NE 4.6 mph - N/A   Overcast
9:53 AM 41.0 °F 38.0 °F 37.9 °F 89% 30.22 in 4.0 mi North 4.6 mph - N/A   Overcast
10:21 AM 41.0 °F 35.8 °F 37.4 °F 87% 30.22 in 3.0 mi NNW 8.1 mph - 0.01 in   Overcast
10:53 AM 41.0 °F 38.0 °F 37.9 °F 89% 30.22 in 4.0 mi North 4.6 mph - 0.01 in   Overcast
11:53 AM 41.0 °F 35.8 °F 37.9 °F 89% 30.19 in 7.0 mi NNE 8.1 mph - N/A   Overcast
12:53 PM 41.0 °F 37.1 °F 37.9 °F 89% 30.17 in 7.0 mi Variable 5.8 mph - N/A   Overcast
1:53 PM 39.9 °F 35.8 °F 37.0 °F 89% 30.14 in 8.0 mi Variable 5.8 mph - N/A   Overcast
2:53 PM 39.9 °F 36.7 °F 37.0 °F 89% 30.15 in 4.0 mi North 4.6 mph - 0.00 in Rain Light Rain
3:04 PM 39.2 °F 35.9 °F 37.4 °F 93% 30.13 in 2.5 mi Variable 4.6 mph - 0.01 in Rain Light Rain
3:17 PM 39.2 °F 35.9 °F 37.4 °F 93% 30.13 in 4.0 mi Variable 4.6 mph - 0.01 in Rain Light Rain
3:26 PM 39.2 °F 35.9 °F 37.4 °F 93% 30.13 in 6.0 mi Variable 4.6 mph - 0.01 in   Overcast
3:53 PM 39.9 °F 35.8 °F 37.0 °F 89% 30.11 in 2.5 mi ENE 5.8 mph - 0.02 in Rain Light Rain
4:03 PM 39.2 °F 37.0 °F 37.4 °F 93% 30.13 in 4.0 mi Variable 3.5 mph - 0.00 in Rain Light Rain
4:53 PM 39.9 °F 36.7 °F 37.0 °F 89% 30.12 in 10.0 mi NE 4.6 mph - 0.00 in   Overcast
5:45 PM 39.2 °F 35.9 °F 35.6 °F 87% 30.13 in 2.0 mi Variable 4.6 mph - 0.09 in Rain Heavy Rain
5:53 PM 39.0 °F 36.8 °F 36.0 °F 89% 30.12 in 3.0 mi Variable 3.5 mph - 0.11 in Rain Rain
6:02 PM 39.2 °F 35.9 °F 35.6 °F 87% 30.11 in 2.5 mi NE 4.6 mph - 0.02 in Rain Rain
6:04 PM 39.2 °F 34.2 °F 35.6 °F 87% 30.12 in 3.0 mi ENE 6.9 mph - 0.02 in Rain Light Rain
6:26 PM 39.2 °F 37.0 °F 35.6 °F 87% 30.13 in 3.0 mi Variable 3.5 mph - 0.04 in Rain Rain
6:33 PM 39.2 °F 35.9 °F 35.6 °F 87% 30.13 in 2.5 mi ENE 4.6 mph - 0.06 in Rain Rain
6:46 PM 39.2 °F 37.0 °F 35.6 °F 87% 30.15 in 4.0 mi North 3.5 mph - 0.08 in Rain Light Rain
6:53 PM 39.0 °F 36.8 °F 36.0 °F 89% 30.15 in 4.0 mi North 3.5 mph - 0.08 in Rain Rain
7:53 PM 37.9 °F 33.5 °F 35.1 °F 89% 30.19 in 6.0 mi NNW 5.8 mph - 0.01 in Rain Light Rain
8:13 PM 37.4 °F 32.8 °F 35.6 °F 93% 30.19 in 2.5 mi Variable 5.8 mph - 0.02 in Rain Light Rain
8:27 PM 37.4 °F 31.4 °F 35.6 °F 93% 30.19 in 4.0 mi North 8.1 mph - 0.03 in Rain Light Rain
8:53 PM 37.9 °F 34.4 °F 35.1 °F 89% 30.19 in 10.0 mi Variable 4.6 mph - 0.03 in   Overcast
9:53 PM 37.0 °F 32.4 °F 34.0 °F 89% 30.22 in 4.0 mi Variable 5.8 mph - 0.00 in   Overcast
10:53 PM 37.0 °F 33.3 °F 34.0 °F 89% 30.24 in 9.0 mi Variable 4.6 mph - 0.00 in   Overcast
11:53 PM 37.0 °F 34.5 °F 34.0 °F 89% 30.25 in 8.0 mi NNW 3.5 mph - 0.00 in   Overcast